GW6475 Weather Reports


time (UTC)temp
C
wind
direction
speed
KPH
gust
KPH
rain 1hr
cm
rain 24hr
cm
rain mn
cm
humidity
%
barometer
mb
20260506092309 12 53 0.0 1.6 0.00 0.00 0.00 67 1017.6
20260506091806 12 40 0.0 0.0 0.00 0.00 0.00 66 1017.5
20260506091304 12 34 0.0 0.0 0.00 0.00 0.00 65 1017.3
20260506090801 12 36 0.0 0.0 0.00 0.00 0.00 65 1017.5
20260506090258 12 18 0.0 0.0 0.00 0.00 0.00 64 1017.7
20260506085755 12 31 0.0 0.0 0.00 0.00 0.00 64 1017.5
20260506085251 12 38 1.6 1.6 0.00 0.00 0.00 64 1017.7
20260506084748 12 44 0.0 0.0 0.00 0.00 0.00 64 1017.6
20260506084244 12 35 0.0 0.0 0.00 0.00 0.00 63 1017.7
20260506083741 12 40 0.0 0.0 0.00 0.00 0.00 62 1017.6
20260506083239 12 31 0.0 0.0 0.00 0.00 0.00 61 1017.6
20260506082736 12 34 0.0 0.0 0.00 0.00 0.00 60 1017.6
20260506082231 12 34 0.0 0.0 0.00 0.00 0.00 60 1017.7
20260506081730 12 34 0.0 0.0 0.00 0.00 0.00 59 1017.3
20260506081227 12 33 0.0 0.0 0.00 0.00 0.00 59 1017.6
20260506080725 12 39 0.0 0.0 0.00 0.00 0.00 59 1017.6
20260506080221 12 39 0.0 0.0 0.00 0.00 0.00 58 1017.2
20260506073205 12 46 0.0 0.0 0.00 0.00 0.00 60 1017.1
20260506072701 12 46 0.0 0.0 0.00 0.00 0.00 60 1017.1
20260506072159 12 46 0.0 0.0 0.00 0.00 0.00 59 1017.0
20260506071656 12 46 0.0 0.0 0.00 0.00 0.00 60 1017.0
20260506071154 12 46 0.0 0.0 0.00 0.00 0.00 61 1017.1
20260506070651 12 46 0.0 0.0 0.00 0.00 0.00 59 1016.9
20260506070148 12 46 0.0 0.0 0.00 0.00 0.00 58 1016.9
20260506062125 13 36 0.0 0.0 0.00 0.00 0.00 55 1016.5
20260506061621 13 36 0.0 0.0 0.00 0.00 0.00 54 1016.2
20260506061119 13 40 0.0 0.0 0.00 0.00 0.00 54 1016.5
20260506060617 13 52 0.0 0.0 0.00 0.00 0.00 54 1016.2
20260506060114 13 44 0.0 0.0 0.00 0.00 0.00 54 1016.0
20260506051046 16 38 0.0 0.0 0.00 0.00 0.00 49 1015.8
20260506050544 16 38 0.0 0.0 0.00 0.00 0.00 48 1015.7
20260506045034 16 35 0.0 0.0 0.00 0.00 0.00 48 1015.7
20260506044532 16 42 0.0 0.0 0.00 0.00 0.00 49 1015.7
20260506044029 17 39 0.0 0.0 0.00 0.00 0.00 51 1015.6
20260506043526 17 39 0.0 0.0 0.00 0.00 0.00 51 1015.5
20260506043024 17 39 0.0 0.0 0.00 0.00 0.00 50 1015.3
20260506042523 18 35 0.0 0.0 0.00 0.00 0.00 49 1015.7
20260506042021 18 34 0.0 0.0 0.00 0.00 0.00 49 1015.3
20260506041519 18 35 0.0 1.6 0.00 0.00 0.00 48 1015.3
20260506041015 18 36 0.0 0.0 0.00 0.00 0.00 48 1015.3
20260506040513 18 32 0.0 1.6 0.00 0.00 0.00 48 1015.3
20260506040009 18 41 0.0 0.0 0.00 0.00 0.00 48 1015.1
20260506035506 18 35 0.0 1.6 0.00 0.00 0.00 48 1015.1
20260506035002 18 37 0.0 1.6 0.00 0.00 0.00 47 1015.2
20260506034500 18 36 0.0 3.2 0.00 0.00 0.00 47 1015.1
20260506033957 19 33 0.0 1.6 0.00 0.00 0.00 47 1015.1
20260506033454 19 37 0.0 1.6 0.00 0.00 0.00 47 1014.8
20260506032951 19 36 0.0 1.6 0.00 0.00 0.00 46 1014.7
20260506032448 20 33 1.6 1.6 0.00 0.00 0.00 45 1015.0
20260506031944 20 35 0.0 6.4 0.00 0.00 0.00 45 1014.8
20260506031442 20 33 1.6 4.8 0.00 0.00 0.00 44 1014.8
20260506030940 20 36 0.0 1.6 0.00 0.00 0.00 44 1014.7
20260506030437 20 35 1.6 3.2 0.00 0.00 0.00 44 1014.6
20260506025934 20 356 1.6 3.2 0.00 0.00 0.00 43 1014.5
20260506025431 20 36 1.6 4.8 0.00 0.00 0.00 43 1014.6
20260506024928 21 47 1.6 3.2 0.00 0.00 0.00 43 1014.5
20260506024425 21 15 3.2 4.8 0.00 0.00 0.00 43 1014.3
20260506023920 21 29 3.2 6.4 0.00 0.00 0.00 42 1014.3
20260506023418 21 2 4.8 6.4 0.00 0.00 0.00 42 1014.3
20260506022914 21 25 1.6 6.4 0.00 0.00 0.00 42 1014.3
20260506022412 21 29 3.2 3.2 0.00 0.00 0.00 41 1014.3
20260506021910 21 11 3.2 6.4 0.00 0.00 0.00 41 1014.2
20260506021407 21 30 3.2 6.4 0.00 0.00 0.00 41 1014.2
20260506020903 21 36 1.6 4.8 0.00 0.00 0.00 41 1013.9
20260506020402 21 23 3.2 9.7 0.00 0.00 0.00 40 1014.0
20260506015858 21 27 3.2 11.3 0.00 0.00 0.00 40 1014.2
20260506015356 22 22 3.2 12.9 0.00 0.00 0.00 40 1014.3
20260506014853 22 46 6.4 11.3 0.00 0.00 0.00 40 1014.2
20260506014349 22 4 3.2 11.3 0.00 0.00 0.00 39 1013.9
20260506013846 22 31 6.4 6.4 0.00 0.00 0.00 39 1014.1
20260506013344 22 8 3.2 11.3 0.00 0.00 0.00 40 1014.0
20260506012840 22 24 4.8 6.4 0.00 0.00 0.00 39 1013.9
20260506012337 22 30 1.6 9.7 0.00 0.00 0.00 39 1013.9
20260506011834 23 14 9.7 12.9 0.00 0.00 0.00 37 1013.9
20260506011331 23 349 8.0 11.3 0.00 0.00 0.00 36 1013.8
20260506010828 23 29 1.6 6.4 0.00 0.00 0.00 35 1013.9
20260506010326 23 6 6.4 14.5 0.00 0.00 0.00 34 1013.8
20260506005823 23 30 4.8 6.4 0.00 0.00 0.00 34 1013.7
20260506005320 23 28 4.8 9.7 0.00 0.00 0.00 34 1013.6
20260506004815 24 4 3.2 9.7 0.00 0.00 0.00 34 1013.6
20260506004313 24 22 3.2 4.8 0.00 0.00 0.00 33 1013.6
20260506003809 24 353 3.2 9.7 0.00 0.00 0.00 33 1013.5
20260506003306 24 41 4.8 6.4 0.00 0.00 0.00 33 1013.6
20260506002802 24 358 6.4 11.3 0.00 0.00 0.00 32 1013.3
20260506002258 23 30 3.2 4.8 0.00 0.00 0.00 32 1013.2
20260506001754 23 12 3.2 3.2 0.00 0.00 0.00 33 1013.5
20260506001252 23 42 0.0 9.7 0.00 0.00 0.00 33 1013.2
20260506000748 24 35 4.8 9.7 0.00 0.00 0.00 32 1013.5
20260506000247 24 12 4.8 6.4 0.00 0.00 0.00 32 1013.3
20260505235743 24 39 1.6 3.2 0.00 0.00 0.00 32 1013.5
20260505235241 25 0 9.7 12.9 0.00 0.00 0.00 31 1013.5
20260505234737 25 47 1.6 4.8 0.00 0.00 0.00 31 1013.5
20260505234235 25 4 3.2 9.7 0.00 0.00 0.00 30 1013.3
20260505233731 25 36 1.6 6.4 0.00 0.00 0.00 31 1013.5
20260505233230 25 25 3.2 6.4 0.00 0.00 0.00 30 1013.2
20260505232726 25 351 8.0 11.3 0.00 0.00 0.00 31 1013.3
20260505232224 25 6 1.6 11.3 0.00 0.00 0.00 31 1013.5
20260505231720 25 36 0.0 6.4 0.00 0.00 0.00 31 1013.5
20260505231219 25 353 0.0 6.4 0.00 0.00 0.00 31 1013.3
20260505230717 25 34 1.6 11.3 0.00 0.00 0.00 31 1013.5
20260505230213 25 357 3.2 9.7 0.00 0.00 0.00 31 1013.6
20260505225710 25 26 6.4 11.3 0.00 0.00 0.00 30 1013.7
20260505225207 25 3 3.2 11.3 0.00 0.00 0.00 30 1013.6
20260505224702 25 49 0.0 1.6 0.00 0.00 0.00 30 1013.6
20260505224200 25 42 1.6 6.4 0.00 0.00 0.00 31 1013.7
20260505223658 25 335 4.8 6.4 0.00 0.00 0.00 30 1013.6
20260505223153 25 49 3.2 3.2 0.00 0.00 0.00 30 1013.6
20260505222649 25 19 3.2 6.4 0.00 0.00 0.00 30 1013.5
20260505222146 25 306 1.6 4.8 0.00 0.00 0.00 29 1013.6
20260505221643 25 4 8.0 11.3 0.00 0.00 0.00 29 1013.7
20260505221139 25 24 1.6 3.2 0.00 0.00 0.00 30 1013.6
20260505220637 25 30 0.0 0.0 0.00 0.00 0.00 30 1013.6
20260505220134 26 22 6.4 11.3 0.00 0.00 0.00 29 1013.7
20260505215632 26 26 1.6 11.3 0.00 0.00 0.00 29 1013.9
20260505215130 26 60 0.0 4.8 0.00 0.00 0.00 29 1013.8
20260505214628 26 7 4.8 9.7 0.00 0.00 0.00 28 1013.7
20260505214125 26 337 0.0 6.4 0.00 0.00 0.00 29 1013.8
20260505213622 25 14 0.0 12.9 0.00 0.00 0.00 29 1013.8
20260505213118 26 29 4.8 6.4 0.00 0.00 0.00 28 1013.9
20260505212615 26 38 0.0 6.4 0.00 0.00 0.00 29 1013.9
20260505212113 25 22 3.2 3.2 0.00 0.00 0.00 29 1013.8
20260505211609 26 6 4.8 6.4 0.00 0.00 0.00 29 1013.8
20260505211107 26 30 0.0 1.6 0.00 0.00 0.00 29 1013.8
20260505210603 25 25 1.6 1.6 0.00 0.00 0.00 30 1013.9
20260505210100 25 34 0.0 3.2 0.00 0.00 0.00 29 1013.9
20260505205557 25 3 0.0 6.4 0.00 0.00 0.00 30 1013.9
20260505205055 25 39 0.0 1.6 0.00 0.00 0.00 31 1014.0
20260505204552 25 20 1.6 3.2 0.00 0.00 0.00 30 1013.9
20260505204049 25 34 1.6 11.3 0.00 0.00 0.00 30 1013.9
20260505203546 25 36 3.2 4.8 0.00 0.00 0.00 30 1014.0
20260505203043 25 33 0.0 1.6 0.00 0.00 0.00 30 1014.0
20260505202539 25 36 0.0 4.8 0.00 0.00 0.00 31 1014.1
20260505202035 25 46 1.6 3.2 0.00 0.00 0.00 31 1014.0
20260505201532 25 25 1.6 3.2 0.00 0.00 0.00 32 1014.0
20260505201030 25 39 1.6 4.8 0.00 0.00 0.00 32 1014.0
20260505200527 25 21 0.0 6.4 0.00 0.00 0.00 33 1014.1
20260505200024 25 15 1.6 3.2 0.00 0.00 0.00 33 1014.0
20260505195520 25 25 4.8 9.7 0.00 0.00 0.00 33 1014.2
20260505195018 24 10 6.4 11.3 0.00 0.00 0.00 33 1014.1
20260505194515 24 32 0.0 3.2 0.00 0.00 0.00 34 1014.2
20260505194010 24 47 0.0 1.6 0.00 0.00 0.00 34 1014.1
20260505193508 24 31 0.0 1.6 0.00 0.00 0.00 34 1014.1
20260505193004 23 35 0.0 4.8 0.00 0.00 0.00 34 1014.2
20260505192503 23 36 3.2 4.8 0.00 0.00 0.00 35 1014.2
20260505192000 23 8 3.2 4.8 0.00 0.00 0.00 35 1014.3
20260505191459 23 36 0.0 0.0 0.00 0.00 0.00 36 1014.2
20260505190956 23 13 0.0 3.2 0.00 0.00 0.00 37 1014.3
20260505190450 23 33 3.2 6.4 0.00 0.00 0.00 36 1014.2
20260505185946 22 3 1.6 9.7 0.00 0.00 0.00 37 1014.2
20260505185444 22 67 0.0 4.8 0.00 0.00 0.00 36 1014.1
20260505184940 22 34 1.6 3.2 0.00 0.00 0.00 38 1014.3
20260505184437 21 37 1.6 3.2 0.00 0.00 0.00 37 1014.3
20260505183933 21 328 3.2 6.4 0.00 0.00 0.00 38 1014.3
20260505183430 21 20 1.6 4.8 0.00 0.00 0.00 39 1014.5
20260505182927 21 36 0.0 1.6 0.00 0.00 0.00 41 1014.5
20260505182424 20 39 0.0 0.0 0.00 0.00 0.00 41 1014.5
20260505181920 20 25 1.6 4.8 0.00 0.00 0.00 40 1014.6
20260505181418 20 42 0.0 3.2 0.00 0.00 0.00 41 1014.5
20260505180914 20 41 0.0 4.8 0.00 0.00 0.00 41 1014.3
20260505180411 20 15 3.2 4.8 0.00 0.00 0.00 41 1014.6
20260505175907 20 33 1.6 3.2 0.00 0.00 0.00 42 1014.3
20260505175404 19 34 0.0 0.0 0.00 0.00 0.00 43 1014.7
20260505174900 19 24 0.0 4.8 0.00 0.00 0.00 44 1014.6
20260505174358 18 40 0.0 0.0 0.00 0.00 0.00 46 1014.5
20260505173854 18 42 0.0 1.6 0.00 0.00 0.00 46 1014.7
20260505173350 18 28 1.6 1.6 0.00 0.00 0.00 45 1014.5
20260505172847 18 58 1.6 1.6 0.00 0.00 0.00 44 1014.3
20260505172345 17 34 0.0 1.6 0.00 0.00 0.00 46 1014.5
20260505171844 17 34 1.6 1.6 0.00 0.00 0.00 46 1014.5
20260505171342 17 241 1.6 1.6 0.00 0.00 0.00 47 1014.5
20260505170838 17 36 1.6 3.2 0.00 0.00 0.00 46 1014.5
20260505170335 16 39 0.0 1.6 0.00 0.00 0.00 47 1014.6
20260505165830 16 31 0.0 0.0 0.00 0.00 0.00 47 1014.5
20260505165326 16 38 0.0 0.0 0.00 0.00 0.00 50 1014.5
20260505164822 16 33 0.0 3.2 0.00 0.00 0.00 49 1014.6
20260505164319 15 33 0.0 0.0 0.00 0.00 0.00 50 1014.6
20260505163817 15 32 0.0 1.6 0.00 0.00 0.00 51 1014.7
20260505163316 15 18 1.6 4.8 0.00 0.00 0.00 51 1014.6
20260505162814 15 4 3.2 3.2 0.00 0.00 0.00 53 1014.3
20260505162309 15 22 1.6 1.6 0.00 0.00 0.00 54 1014.3
20260505161807 14 39 0.0 0.0 0.00 0.00 0.00 59 1014.7
20260505161304 13 42 0.0 0.0 0.00 0.00 0.00 58 1014.6
20260505160801 13 36 0.0 0.0 0.00 0.00 0.00 62 1014.5
20260505160259 12 34 0.0 0.0 0.00 0.00 0.00 62 1014.5
20260505153239 11 29 0.0 0.0 0.00 0.00 0.00 68 1014.7
20260505152736 11 40 0.0 0.0 0.00 0.00 0.00 69 1014.7
20260505152232 10 40 0.0 0.0 0.00 0.00 0.00 69 1014.5
20260505151731 10 274 0.0 1.6 0.00 0.00 0.00 69 1014.6
20260505151229 10 39 0.0 0.0 0.00 0.00 0.00 70 1014.6
20260505150726 10 42 0.0 0.0 0.00 0.00 0.00 70 1014.6
20260505150223 10 33 0.0 1.6 0.00 0.00 0.00 71 1014.5
20260505140154 8 255 3.2 3.2 0.00 0.00 0.00 72 1013.7
20260505130118 7 35 0.0 0.0 0.00 0.00 0.00 74 1013.3
20260505124607 8 31 0.0 0.0 0.00 0.00 0.00 74 1013.3
20260505124103 8 187 1.6 1.6 0.00 0.00 0.00 74 1013.2
20260505123559 8 34 0.0 0.0 0.00 0.00 0.00 74 1013.3
20260505123056 8 44 0.0 1.6 0.00 0.00 0.00 74 1013.2
20260505122553 8 37 0.0 0.0 0.00 0.00 0.00 74 1013.0
20260505122050 8 30 0.0 1.6 0.00 0.00 0.00 74 1012.9
20260505121546 8 28 0.0 0.0 0.00 0.00 0.00 74 1013.2
20260505121043 8 25 0.0 0.0 0.00 0.00 0.00 74 1013.0
20260505120540 8 41 0.0 0.0 0.00 0.00 0.00 74 1012.8
20260505120035 8 24 0.0 1.6 0.00 0.00 0.00 74 1013.0
20260505115530 8 30 0.0 0.0 0.00 0.00 0.00 74 1012.9
20260505115028 8 44 0.0 0.0 0.00 0.00 0.00 74 1013.0
20260505114525 8 39 0.0 0.0 0.00 0.00 0.00 74 1013.0
20260505114021 8 33 0.0 1.6 0.00 0.00 0.00 74 1012.9
20260505113518 8 37 0.0 1.6 0.00 0.00 0.00 74 1013.0
20260505113014 8 37 0.0 1.6 0.00 0.00 0.00 74 1012.9
20260505112510 8 35 0.0 0.0 0.00 0.00 0.00 74 1012.9
20260505112009 8 42 0.0 0.0 0.00 0.00 0.00 74 1013.1
20260505111508 8 28 0.0 0.0 0.00 0.00 0.00 74 1013.1
20260505111004 9 36 0.0 0.0 0.00 0.00 0.00 74 1012.9
20260505110501 9 359 0.0 0.0 0.00 0.00 0.00 74 1013.0
20260505101933 10 37 0.0 0.0 0.00 0.00 0.00 72 1012.9
20260505101432 10 31 0.0 0.0 0.00 0.00 0.00 71 1012.9
20260505100928 10 39 0.0 0.0 0.00 0.00 0.00 71 1012.6
20260505100425 10 68 0.0 1.6 0.00 0.00 0.00 70 1012.8
20260505095921 10 32 0.0 0.0 0.00 0.00 0.00 70 1012.8
20260505095418 10 55 0.0 0.0 0.00 0.00 0.00 70 1012.8
20260505094914 10 34 0.0 0.0 0.00 0.00 0.00 70 1012.7
20260505094411 10 37 0.0 0.0 0.00 0.00 0.00 70 1012.7
20260505093907 10 33 0.0 0.0 0.00 0.00 0.00 70 1012.7
20260505093404 10 34 0.0 0.0 0.00 0.00 0.00 70 1012.8
20260505092901 10 27 0.0 0.0 0.00 0.00 0.00 69 1012.7